When you browse on this site, cookies collect data to enhance your experience and personalize the content and advertising you see.
Visit our Privacy Policy to learn more. By continuing to use the site, you agree to this use of cookies and data.
  • In Hungary
  • List of Countries
  • For 7 days
  • Water Temperature
  • Satellite Maps
  • Weather Map
  • News
  • Weather Widgets
  • user-avatar
    Login

    Hourly Weather Derbyshire

    Today, 23 February, Saturday

    Time Temperature Precipitation Wind Pressure Humidity
    00:00 +5°C° 0 mm 3 mps 764 mmHg 88%
    01:00 +5°C° 0 mm 3 mps 764 mmHg 87%
    02:00 +5°C° 0 mm 3 mps 764 mmHg 86%
    03:00 +4°C° 0 mm 3 mps 763 mmHg 85%
    04:00 +4°C° 0 mm 3 mps 763 mmHg 87%
    05:00 +4°C° 0 mm 3 mps 763 mmHg 89%
    06:00 +4°C° 0 mm 2 mps 764 mmHg 91%
    07:00 +5°C° 0 mm 2 mps 764 mmHg 89%
    08:00 +5°C° 0 mm 3 mps 763 mmHg 87%
    09:00 +6°C° 0 mm 4 mps 763 mmHg 86%
    10:00 +8°C° 0 mm 4 mps 763 mmHg 82%
    11:00 +10°C° 0 mm 4 mps 763 mmHg 78%
    12:00 +12°C° 0 mm 4 mps 763 mmHg 74%
    13:00 +13°C° 0 mm 4 mps 763 mmHg 74%
    14:00 +13°C° 0 mm 4 mps 763 mmHg 74%
    15:00 +14°C° 0 mm 4 mps 763 mmHg 73%
    16:00 +13°C° 0 mm 4 mps 763 mmHg 79%
    17:00 +11°C° 0 mm 3 mps 763 mmHg 84%
    18:00 +10°C° 0 mm 3 mps 764 mmHg 90%
    19:00 +10°C° 0 mm 2 mps 764 mmHg 91%
    20:00 +9°C° 0 mm 2 mps 764 mmHg 92%
    21:00 +9°C° 0 mm 2 mps 765 mmHg 93%
    22:00 +9°C° 0 mm 2 mps 765 mmHg 93%
    23:00 +10°C° 0 mm 1 mps 765 mmHg 93%

    Tomorrow, 24 February, Sunday

    Time Temperature Precipitation Wind Pressure Humidity
    00:00 +10°C° 0 mm 1 mps 765 mmHg 93%
    01:00 +9°C° 0 mm 1 mps 765 mmHg 93%
    02:00 +9°C° 0 mm 1 mps 765 mmHg 93%
    03:00 +7°C° 0 mm 0 mps 765 mmHg 94%
    04:00 +8°C° 0 mm 1 mps 765 mmHg 94%
    05:00 +8°C° 0 mm 1 mps 765 mmHg 94%
    06:00 +8°C° 0 mm 1 mps 765 mmHg 95%
    07:00 +8°C° 0 mm 1 mps 766 mmHg 92%
    08:00 +9°C° 0 mm 1 mps 766 mmHg 90%
    09:00 +9°C° 0 mm 1 mps 766 mmHg 87%
    10:00 +10°C° 0 mm 2 mps 766 mmHg 81%
    11:00 +12°C° 0 mm 2 mps 766 mmHg 74%
    12:00 +13°C° 0 mm 2 mps 766 mmHg 67%
    13:00 +14°C° 0 mm 2 mps 766 mmHg 66%
    14:00 +14°C° 0 mm 2 mps 766 mmHg 64%
    15:00 +15°C° 0 mm 2 mps 766 mmHg 63%
    16:00 +13°C° 0 mm 2 mps 766 mmHg 67%
    17:00 +12°C° 0 mm 2 mps 766 mmHg 72%
    18:00 +9°C° 0 mm 2 mps 766 mmHg 77%
    19:00 +8°C° 0 mm 2 mps 767 mmHg 77%
    20:00 +8°C° 0 mm 2 mps 767 mmHg 78%
    21:00 +7°C° 0 mm 2 mps 767 mmHg 78%
    22:00 +7°C° 0 mm 2 mps 767 mmHg 77%
    23:00 +6°C° 0 mm 2 mps 767 mmHg 75%

    Day after tomorrow, 25 February, Monday

    Time Temperature Precipitation Wind Pressure Humidity
    00:00 +6°C° 0 mm 2 mps 767 mmHg 74%
    01:00 +5°C° 0 mm 2 mps 767 mmHg 72%
    02:00 +6°C° 0 mm 1 mps 767 mmHg 71%
    03:00 +6°C° 0 mm 1 mps 767 mmHg 69%
    04:00 +4°C° 0 mm 2 mps 767 mmHg 67%
    05:00 +4°C° 0 mm 2 mps 767 mmHg 64%
    06:00 +4°C° 0 mm 2 mps 767 mmHg 62%
    07:00 +5°C° 0 mm 2 mps 767 mmHg 61%
    08:00 +7°C° 0 mm 1 mps 767 mmHg 60%
    09:00 +7°C° 0 mm 1 mps 768 mmHg 59%
    10:00 +8°C° 0 mm 2 mps 767 mmHg 56%
    11:00 +10°C° 0 mm 2 mps 767 mmHg 53%
    12:00 +12°C° 0 mm 3 mps 767 mmHg 50%
    13:00 +12°C° 0 mm 3 mps 767 mmHg 52%
    14:00 +13°C° 0 mm 3 mps 767 mmHg 54%
    15:00 +13°C° 0 mm 3 mps 766 mmHg 55%
    16:00 +12°C° 0 mm 3 mps 766 mmHg 62%
    17:00 +10°C° 0 mm 3 mps 766 mmHg 68%
    18:00 +9°C° 0 mm 3 mps 766 mmHg 75%
    19:00 +8°C° 0 mm 3 mps 766 mmHg 76%
    20:00 +8°C° 0 mm 2 mps 766 mmHg 77%
    21:00 +7°C° 0 mm 2 mps 766 mmHg 79%
    22:00 +7°C° 0 mm 2 mps 766 mmHg 79%
    23:00 +7°C° 0 mm 2 mps 766 mmHg 79%

    26 February, Tuesday

    Time Temperature Precipitation Wind Pressure Humidity
    00:00 +6°C° 0 mm 2 mps 766 mmHg 79%
    01:00 +6°C° 0 mm 2 mps 765 mmHg 77%
    02:00 +6°C° 0 mm 2 mps 765 mmHg 76%
    03:00 +4°C° 0 mm 3 mps 765 mmHg 74%
    04:00 +5°C° 0 mm 2 mps 765 mmHg 75%
    05:00 +5°C° 0 mm 2 mps 765 mmHg 75%
    06:00 +5°C° 0 mm 2 mps 765 mmHg 75%
    07:00 +6°C° 0 mm 2 mps 765 mmHg 74%
    08:00 +7°C° 0 mm 2 mps 765 mmHg 72%
    09:00 +8°C° 0 mm 2 mps 765 mmHg 71%
    10:00 +10°C° 0 mm 2 mps 765 mmHg 67%
    11:00 +12°C° 0 mm 2 mps 765 mmHg 63%
    12:00 +14°C° 0 mm 2 mps 764 mmHg 59%
    13:00 +15°C° 0 mm 2 mps 764 mmHg 59%
    14:00 +15°C° 0 mm 2 mps 764 mmHg 59%
    15:00 +15°C° 0 mm 2 mps 764 mmHg 59%
    16:00 +14°C° 0 mm 2 mps 763 mmHg 67%
    17:00 +12°C° 0 mm 2 mps 763 mmHg 74%
    18:00 +10°C° 0 mm 2 mps 763 mmHg 82%
    19:00 +9°C° 0 mm 2 mps 763 mmHg 84%
    20:00 +9°C° 0 mm 2 mps 762 mmHg 85%
    21:00 +8°C° 0 mm 2 mps 762 mmHg 87%
    22:00 +8°C° 0 mm 2 mps 762 mmHg 88%
    23:00 +7°C° 0 mm 2 mps 762 mmHg 88%

    27 February, Wednesday

    Time Temperature Precipitation Wind Pressure Humidity
    00:00 +7°C° 0 mm 2 mps 762 mmHg 89%
    01:00 +6°C° 0 mm 2 mps 761 mmHg 90%
    02:00 +6°C° 0 mm 2 mps 761 mmHg 90%
    03:00 +6°C° 0 mm 2 mps 760 mmHg 91%
    04:00 +5°C° 0 mm 2 mps 760 mmHg 91%
    05:00 +5°C° 0 mm 2 mps 759 mmHg 91%
    06:00 +5°C° 0 mm 2 mps 759 mmHg 92%
    07:00 +6°C° 0 mm 2 mps 759 mmHg 90%
    08:00 +7°C° 0 mm 3 mps 759 mmHg 89%
    09:00 +8°C° 0 mm 3 mps 759 mmHg 87%
    10:00 +9°C° 0 mm 3 mps 759 mmHg 82%
    11:00 +10°C° 0 mm 3 mps 758 mmHg 76%
    12:00 +12°C° 0 mm 3 mps 758 mmHg 71%
    13:00 +12°C° 0 mm 4 mps 758 mmHg 69%
    14:00 +13°C° 0 mm 4 mps 757 mmHg 67%
    15:00 +13°C° 0 mm 4 mps 757 mmHg 65%
    16:00 +12°C° 0 mm 4 mps 756 mmHg 71%
    17:00 +11°C° 0 mm 4 mps 756 mmHg 77%
    18:00 +10°C° 0 mm 3 mps 756 mmHg 83%
    19:00 +8°C° 0 mm 4 mps 756 mmHg 85%
    20:00 +8°C° 0 mm 4 mps 756 mmHg 86%
    21:00 +8°C° 0 mm 5 mps 756 mmHg 87%
    22:00 +7°C° 0 mm 5 mps 756 mmHg 88%
    23:00 +7°C° 0 mm 5 mps 756 mmHg 89%

    28 February, Thursday

    Time Temperature Precipitation Wind Pressure Humidity
    00:00 +7°C° 0 mm 4 mps 756 mmHg 91%
    01:00 +7°C° 0 mm 5 mps 756 mmHg 90%
    02:00 +8°C° 0 mm 5 mps 757 mmHg 89%
    03:00 +8°C° 0 mm 6 mps 757 mmHg 88%
    04:00 +8°C° 0 mm 5 mps 757 mmHg 87%
    05:00 +8°C° 0 mm 5 mps 758 mmHg 86%
    06:00 +8°C° 0 mm 5 mps 758 mmHg 86%
    07:00 +8°C° 0 mm 6 mps 758 mmHg 83%
    08:00 +8°C° 0 mm 6 mps 759 mmHg 81%
    09:00 +8°C° 0 mm 6 mps 760 mmHg 78%
    10:00 +9°C° 0 mm 6 mps 760 mmHg 77%
    11:00 +10°C° 0 mm 6 mps 760 mmHg 75%
    12:00 +10°C° 0 mm 7 mps 761 mmHg 73%
    13:00 +11°C° 0 mm 6 mps 761 mmHg 72%
    14:00 +11°C° 0 mm 6 mps 760 mmHg 71%
    15:00 +11°C° 0 mm 6 mps 760 mmHg 70%
    16:00 +10°C° 0 mm 5 mps 760 mmHg 75%
    17:00 +8°C° 0 mm 4 mps 761 mmHg 80%
    18:00 +8°C° 0 mm 3 mps 761 mmHg 85%
    19:00 +8°C° 0 mm 3 mps 761 mmHg 87%
    20:00 +7°C° 0 mm 2 mps 761 mmHg 89%
    21:00 +7°C° 0 mm 2 mps 761 mmHg 92%
    22:00 +7°C° 0 mm 2 mps 761 mmHg 92%
    23:00 +7°C° 0 mm 2 mps 761 mmHg 93%
    Show more